Starlink 3960

operational
NORAD ID: 52659 Int'l Des: 2022-053 Owner: SPXS Country: US Constellation: starlink
LEOCIRCULAR

About Starlink 3960

Description loading...

Live Position

Loading 3D Globe...

Upcoming Passes

Altitude History

Altitude vs Time

uPlot chart will show altitude changes over time

Two-Line Element Set

1 52659U 22053D 25303.46324392 .00003561 00000-0 24183-3 0 9991
2 52659 53.2208 18.6805 0001737 88.7592 271.3600 15.08822133191568
Epoch: Oct 30, 2025 • Age: 25 hours

Current Status

Altitude 552.5 km
Velocity 7.58 km/s
Sub-Earth Point -36.68°S, 115.15°E
Launch Date May 18, 2022
Age 3.4 years
Type internet

Technical Details

Classification Payload
Mass 297.00 kg
Dry Mass 275.00 kg
Total Mass 297.00 kg
Length 0.20 m
Diameter 2.80 m
Span 9.00 m
Shape Box + pan
Manufacturer SPXS
Bus Type Starlink
Phase Status In Orbit
Owner/State SPXS/US

Large Constellations

Loading constellations...